Location: ??????????
(54.8537°N, 38.8755°E)
Time: 01:06:09
(UTC+00:00)

Transit 4A - Pass Details

Date: 13 September 2024
Orbit: 865 x 977 km, 66.8° (Epoch: 09 October)

Event Time Altitude Azimuth Distance (km) Brightness Sun altitude
Exits shadow 23:30:48 13° 139° (SE) 2,327 9.8 -25.9°
Maximum altitude 23:33:43 18° 106° (ESE) 2,025 9.9 -25.6°
Drops below altitude 10° 23:37:38 10° 64° (ENE) 2,588 11.1 -25.3°
Sets 23:40:56 0° 47° (NE) 3,557 12.3 -25.0°
